Regional Weather Roundup
Issued by NWS

Home | Current Version | Previous Version | Graphics & Text | Print | Product List | Glossary On
Versions: 1 2 3 4 5 6 7 8 9 10 11 12 13 14 15 16 17 18 19 20 21 22 23 24 25 26 27 28 29 30 31 32 33 34 35 36 37 38 39 40 41 42 43 44 45 46 47 48 49 50
000
ASUS45 KTFX 240710
RWRMT
MONTANA REGIONAL WEATHER ROUNDUP
NATIONAL WEATHER SERVICE GREAT FALLS MT
100 AM MDT SUN MAY 24 2015

NOTE: "FAIR" INDICATES FEW OR NO CLOUDS BELOW 12000 FEET WITH NO
SIGNIFICANT WEATHER AND/OR OBSTRUCTIONS TO VISIBILITY.

MTZ001>007-043-240800-
WEST OF THE DIVIDE

CITY           SKY/WX    TMP DP  RH WIND       PRES   REMARKS
KALISPELL      SUNNY     43  38  82 CALM      30.08S
MISSOULA       CLOUDY    52  43  71 CALM      30.10S
BUTTE          CLOUDY    47  41  80 SW3       30.11S
MULLAN PASS    CLEAR     47  34  60 CALM      30.14S
DEER LODGE       N/A     50  43  76 NW6       30.14F
EUREKA           N/A     48  32  53 CALM      30.07
HAMILTON         N/A     54  43  66 NW8       30.06S
LIBBY            N/A     54  37  54 SE3       30.06F
RONAN            N/A     47  41  80 N1        30.11S
$$

MTZ008-052>055-240800-
SOUTHWEST MONTANA

CITY           SKY/WX    TMP DP  RH WIND       PRES   REMARKS
BOZEMAN        LGT RAIN  47  45  93 CALM      30.08S
DILLON         MOCLDY    46  43  89 E6        30.07S
W YELLOWSTONE  PTCLDY    34  34 100 CALM      30.07F
THREE FORKS      N/A     47  27  46 CALM      30.06F
TWIN BRIDGES     N/A     49  41  74 N10       30.04S
$$

MTZ009-010-012-014-046-048-049-054-240800-
EAST SLOPES AND CENTRAL MONTANA

CITY           SKY/WX    TMP DP  RH WIND       PRES   REMARKS
CUT BANK       CLEAR     45  42  89 N6        30.13S
GREAT FALLS    CLOUDY    50  48  93 W3        30.11S
MALMSTROM AFB  CLOUDY    50  50  98 SE3       30.11F
HELENA         CLOUDY    51  44  77 W6        30.10S
CONRAD           N/A     48  48 100 CALM      30.13S
$$

MTZ011-013-016-021-045-047-050-051-240800-
NORTH CENTRAL MONTANA

CITY           SKY/WX    TMP DP  RH WIND       PRES   REMARKS
HAVRE          PTCLDY    48  41  76 CALM      30.10S
LEWISTOWN      CLEAR     45  40  82 E5        30.12S
N BAR RANCH    PTSUNNY   45  41  87 W5        30.13F
CHINOOK          N/A     48  45  87 CALM      30.11S
FORT BENTON      N/A     54  50  87 CALM      30.12S
$$

MTZ017>020-022>027-061-062-240800-
NORTHEAST MONTANA

CITY           SKY/WX    TMP DP  RH WIND       PRES   REMARKS
GLASGOW        CLEAR     50  41  71 E5        30.10S
JORDAN           N/A     51  45  79 E5        30.10S
SIDNEY         MOCLDY    54  45  71 CALM      30.10F
WOLF POINT     PTCLDY    46  41  82 NW5       30.11S
MALTA            N/A     46  38  74 CALM      30.06F
PLENTYWOOD       N/A     57  39  51 CALM      30.11S
POPLAR           N/A     54  45  71 CALM      30.11F
SCOBEY           N/A     44  32  63 CALM      30.10S
$$

MTZ028>42-056>058-240800-
SOUTHCENTRAL AND SOUTHEAST MONTANA

CITY           SKY/WX    TMP DP  RH WIND       PRES   REMARKS
BAKER          CLOUDY    48  46  93 NE7       30.08F
BILLINGS       MOCLDY    50  45  83 NE8       30.06F
LIVINGSTON     LGT RAIN  48  46  93 E7        30.07F
MILES CITY     CLOUDY    52  50  93 NE9       30.06F
BIG TIMBER       N/A     48  46  93 NE5       30.10S
EKALAKA          N/A     48  44  86 SE7       30.04S
FORSYTH          N/A     52  52 100 N5        30.05F
LAUREL           N/A     50  42  73 N1        30.05S
ROUNDUP          N/A     49  41  74 CALM      30.00F
$$

REGIONAL REPORTS...DAKOTAS

CITY           SKY/WX    TMP DP  RH WIND       PRES   REMARKS
WILLISTON      CLEAR     48  43  82 CALM      30.11R
MINOT          PTCLDY    54  46  74 SW7       30.10R
DICKINSON      PTCLDY    48  46  93 NE5       30.07F
BEACH          FAIR      45  45 100 E6        30.10S
CROSBY         FAIR      46  46 100 S6        30.10S
WATFORD CITY   FAIR      50  45  81 CALM      30.09S
BISMARCK       CLOUDY    56  52  86 E5        30.10F
GRAND FORKS    CLEAR     52  44  74 CALM      30.09S
FARGO          CLEAR     54  48  80 E3        30.09F
BUFFALO SD       N/A     51  48  89 E8        30.00F
RAPID CITY     LGT RAIN  53  52  96 E9        30.01F FOG
$$

REGIONAL REPORTS...WYOMING/IDAHO/WASHINGTON

CITY           SKY/WX    TMP DP  RH WIND       PRES   REMARKS
GILLETTE       CLOUDY    50  47  89 N7        30.01S
SHERIDAN       CLOUDY    49  47  93 NW3       30.04F
BUFFALO WY     CLOUDY    48  46  93 NW10      30.03F
CODY           CLOUDY    48  43  81 NW8       30.05S
YELLOWSTONE LA   N/A     38  33  82 VRB3      30.10F
IDAHO FALLS    FOG       43  42  97 N6        29.98F VSB 1/4
SALMON         MOCLDY    52  48  87 CALM      30.03S
BOISE          PTCLDY    59  51  75 S14       29.93R
SPOKANE        PTCLDY    64  52  64 S16       30.00R
$$

REGIONAL REPORTS...ALBERTA

CITY           SKY/WX    TMP DP  RH WIND       PRES   REMARKS
EDMONTON       CLEAR     52  34  50 E6        30.06S
CALGARY        CLEAR     59  28  31 VRB2      30.11S
LETHBRIDGE     CLEAR     45  37  76 SW7       30.12R
MEDICINE HAT   CLEAR     50  37  62 SW5       30.10S
$$

REGIONAL REPORTS...SASKATCHEWAN

CITY           SKY/WX    TMP DP  RH WIND       PRES   REMARKS
SWIFT CURRENT  CLEAR     50  30  46 SW10      30.11S
REGINA         CLEAR     50  34  53 SW3       30.09S
SASKATOON      PTCLDY    54  39  58 NE3       30.08S
$$



USA.gov is the U.S. government's official web portal to all federal, state and local government web resources and services.